Tracking 19846 objects as of 19-Sep-2019
HD Live streaming from Space Station
objects crossing your sky now

COSMOS 1375 DEB

Track COSMOS 1375 DEB now!
10-day predictions


NORAD ID: 16209
Int'l Code: 1982-055L
Perigee: 991.7 km
Apogee: 1,012.4 km
Inclination: 65.8 °
Period: 105.0 minutes
Semi major axis: 7373 km
RCS: 0.5415 m2 (medium)
Launch date: June 6, 1982
Source: Commonwealth of Independent States (former USSR) (CIS)
Launch site: PLESETSK MISSILE AND SPACE COMPLEX (PKMTR)

Note: This is SATELLITE DEBRIS
aabbcc
Your satellite tracking list
Your tracking list is empty




NASA's NSSDC Master Catalog

Two Line Element Set (TLE):
1 16209U 82055L   19260.89579233 -.00000069 +00000-0 +12543-4 0  9997
2 16209 065.8352 202.1219 0014055 171.8968 254.5196 13.71289126702518
Source of the keplerian elements: AFSPC